Flag for Norway Weather past 2 weeks in Hammerfest, Norway

Now
48 °F

Passing clouds.


Feels Like: 46 °F
Forecast: 41 / 47 °F
Wind: 5 mph from Southeast

Location: Hammerfest

Current Time: May 27, 2015 at 8:41:10 AM

Latest Report: May 27, 2015 at 7:50 AM


Visibility: N/A

Pressure: 29.83 "Hg

Humidity: 62%

Dew point: 36 °F

Location of HammerfestLocation

Historic Weather in Hammerfest — Graph

°F

Hammerfest temperature yesterday

Maximum temperature yesterday: 46 °F (at 5:50 PM)
Minimum temperature yesterday: 36 °F (at 12:50 AM)
Average temperature yesterday: 40 °F

Past Weeks' High & Low Weather Summary

 TemperatureHumidityPressure
High52 °F (May 22, 2:50 PM)100% (May 13, 7:50 AM)30.04 "Hg (May 13, 7:50 AM)
Low32 °F (May 15, 4:50 AM)41% (May 22, 3:50 PM)29.24 "Hg (May 23, 9:50 PM)
Average39 °F78%29.72 "Hg
* Reported May 12 6:50 AM — May 27 6:50 AM, Hammerfest, Weather by CustomWeather, © 2015

Note: Actual official high and low records may vary slightly from our data, if they occured in-between our weather recording intervals... More about our weather records

Advertising

Hammerfest weather history for previous 24 hours

 ConditionsComfort  
Time TempWeatherWind HumidityBarometerVisibility
6:50 AM
Wed, May 27
46 °FSunny.7 mph66%29.83 "Hg10 mi
5:50 AM45 °FSunny.7 mph71%29.83 "Hg10 mi
4:50 AM43 °FSunny.7 mph71%29.83 "Hg10 mi
3:50 AM41 °FSunny.7 mph76%29.86 "Hg10 mi
2:50 AM41 °FSunny.7 mph76%29.86 "Hg10 mi
1:50 AM39 °FSunny.6 mph75%29.86 "Hg10 mi
12:50 AM39 °FPassing clouds.6 mph75%29.86 "HgN/A
11:50 PM
Tue, May 26
41 °FSunny.6 mph76%29.86 "Hg10 mi
10:50 PM39 °FSunny.7 mph81%29.89 "Hg10 mi
9:50 PM43 °FSunny.8 mph66%29.89 "Hg10 mi
8:50 PM45 °FSunny.9 mph61%29.89 "Hg10 mi
6:50 PM46 °FSunny.8 mph57%29.89 "Hg10 mi
5:50 PM46 °FPassing clouds.6 mph53%29.89 "HgN/A
4:50 PM45 °FPassing clouds.9 mph61%29.89 "HgN/A
3:50 PM45 °FSunny.10 mph61%29.92 "Hg10 mi
2:50 PM45 °FPassing clouds.6 mph57%29.92 "HgN/A
1:50 PM43 °FScattered clouds.6 mph61%29.92 "HgN/A
12:50 PM43 °FScattered clouds.6 mph57%29.92 "HgN/A
11:50 AM41 °FScattered clouds.5 mph61%29.92 "HgN/A
10:50 AM41 °FPartly sunny.7 mph61%29.92 "HgN/A
9:50 AM39 °FScattered showers. Partly sunny.7 mph70%29.92 "HgN/A
8:50 AM39 °FPartly sunny.3 mph70%29.92 "HgN/A
Weather by CustomWeather, © 2015

See weather overviewHow to use our weather pages